"Pseudo-MPEC" for CC76KA2

Created 2024 Nov 1 0:31:13 UT using Find_Orb

Click here for an explanation of pseudo-MPECs

 
 Astrometry: 
     CC76KA2*1C2024 10 30.22279000 41 13.798+08 31 23.66   ~AU6H 21.67GVNEOCPG96
     CC76KA2 1C2024 10 30.22796100 41 15.893+08 30 27.47   ~AU6H 21.90GVNEOCPG96
     CC76KA2 1C2024 10 30.23312800 41 17.927+08 29 30.37   ~AU6H 20.83GVNEOCPG96
     CC76KA2 1C2024 10 30.23831800 41 19.990+08 28 36.44   ~AU6H 21.44GVNEOCPG96
     CC76KA2 KC2024 10 30.34828000 42 03.784+08 09 01.91   ~AU92 21.43GVNEOCPV06
     CC76KA2 KC2024 10 30.35102500 42 04.900+08 08 32.71   ~AU92 21.90GVNEOCPV06
     CC76KA2 KC2024 10 30.35376700 42 06.034+08 08 03.26   ~AU92 21.42GVNEOCPV06
     CC76KA2 KC2024 10 30.99177 00 46 53.91 +06 18 00.5    ~AVAH 19.9 GVNEOCPY65
     CC76KA2 KC2024 10 30.99493 00 46 55.07 +06 17 28.7    ~AVAH 20.0 GVNEOCPY65
     CC76KA2 KC2024 10 30.99809 00 46 56.25 +06 16 56.4    ~AVAH 20.0 GVNEOCPY65
     CC76KA2 1C2024 10 31.26115 00 48 49.078+05 32 36.02   ~AV72x20.0 GVNEOCPG96
     CC76KA2 1C2024 10 31.26353 00 48 49.913+05 32 14.71   ~AV72 21.9 GVNEOCPG96
     CC76KA2 1C2024 10 31.26513 00 48 50.479+05 31 58.98   ~AV72 20.8 GVNEOCPG96
     CC76KA2 HB2024 10 31.88864 00 53 12.32 +03 50 06.7    ~B10V       VNEOCP204
     CC76KA2 KB2024 10 31.91197 00 53 20.66 +03 46 24.7    ~B10V 21.7 GVNEOCP204

Station data:
(204) Schiaparelli Observatory  (N45.868292 E8.769720)  Italy.  Observer L.
   Buzzi. 0.60-m f/4.64 Newtonian + CCD0.84-m f/3.5 reflector + CCD.
(G96) Mt. Lemmon Survey  (N32.442729 W110.788720)  US/Arizona.  Observer E.
   J. Christensen. 1.5-m reflector + 10K CCD.
(V06) Catalina Sky Survey-Kuiper  (N32.416871 W110.732550)  US/Arizona.
   Observers T. A. Pruyne, B. M. Africano, E. J. Christensen, G. A. Farneth,
   D. C. Fuls, A. R. Gibbs, A. D. Grauer, H. Gröller, J. A. Johnson, R. A.
   Kowalski, S. M. Larson, G. J. Leonard, D. Rankin, R. L. Seaman, F. C.
   Shelly, K. W. Wierzchoś. 1.55-m reflector + CCD.
(Y65) Two-Meter Twin Telescope, TTT1, Teide  (N28.298728 W16.509580)  Canary
   Islands (Spain).

Orbital elements:  CC76KA2
   Perihelion 2024 Sep 6.60395 +/- 0.137 TT = 14:29:41 (JD 2460560.10395)
Epoch 2024 Oct 31.0 TT = JDT 2460614.5   Earth MOID: 0.0426      AutoNEOCP
M  46.08361079 +/- 0.15             (J2000 ecliptic)
n   0.84718677 +/- 0.00104          Peri.  125.26612 +/- 0.14
a   1.10615657 +/- 0.000906         Node   216.85358 +/- 0.0059
e   0.0930692 +/- 0.000647          Incl.    9.79560 +/- 0.050
P   1.163/424.928d         H 26.68  G  0.15   U  8.1
q 1.00320739 +/- 0.000195    Q 1.20910576 +/- 0.0017
14 of 15 observations 2024 Oct. 30-31 (40.5 hr); mean residual 0".53
Residuals in arcseconds: 
241030 G96  .88-  1.3+    241030 V06  .12-  .01-    241031 G96( .42+  2.0-)   
241030 G96  .04-  .34+    241030 V06  .08+  .17-    241031 G96  .13-  .51+    
241030 G96  .07-  1.6-    241030 Y65  .63+  .21-    241031 G96  .43-  .76+    
241030 G96  .20+  .14-    241030 Y65  .46+  .14+    241031 204  .01-  .34-    
241030 V06  .07-  .13-    241030 Y65  .58+  .01-    241031 204  .40-  .18-    

Ephemerides (geocentric):
Date (UTC) HH   RA             Dec           delta  r     elong  mag " sig PA
---- --------  ------------   ------------  ------ ------ -----  --- --------
2024 11 01 01  00 54 13.694   +03 27 46.40  .05378 1.0415 155.0 21.5 .637 175
2024 11 01 02  00 54 30.450   +03 21 14.47  .05386 1.0416 154.9 21.5 .658 174
2024 11 01 03  00 54 47.158   +03 14 43.77  .05394 1.0416 154.9 21.6 .679 173
2024 11 01 04  00 55 03.819   +03 08 14.30  .05402 1.0417 154.9 21.6 .702 172
2024 11 01 05  00 55 20.433   +03 01 46.04  .05410 1.0417 154.9 21.6 .725 171
2024 11 01 06  00 55 37.000   +02 55 19.02  .05419 1.0418 154.8 21.6 .749 170
2024 11 01 07  00 55 53.519   +02 48 53.21  .05427 1.0418 154.8 21.6 .774 169
2024 11 01 08  00 56 09.993   +02 42 28.63  .05435 1.0419 154.8 21.6 .800 168
2024 11 01 09  00 56 26.419   +02 36 05.28  .05444 1.0420 154.7 21.6 .826 168
2024 11 01 10  00 56 42.799   +02 29 43.15  .05452 1.0420 154.7 21.6 .853 167
2024 11 01 11  00 56 59.133   +02 23 22.24  .05461 1.0421 154.7 21.6 .880 166
2024 11 01 12  00 57 15.421   +02 17 02.56  .05469 1.0421 154.6 21.6 .909 166
2024 11 01 13  00 57 31.663   +02 10 44.10  .05478 1.0422 154.6 21.6 .937 165
2024 11 01 14  00 57 47.859   +02 04 26.86  .05486 1.0422 154.5 21.6 .967 164
2024 11 01 15  00 58 04.009   +01 58 10.85  .05495 1.0423 154.5 21.6 1.00 164
2024 11 01 16  00 58 20.114   +01 51 56.06  .05503 1.0423 154.5 21.6 1.03 163
2024 11 01 17  00 58 36.173   +01 45 42.49  .05512 1.0424 154.4 21.6 1.06 163
2024 11 01 18  00 58 52.188   +01 39 30.14  .05520 1.0424 154.4 21.6 1.09 162
2024 11 01 19  00 59 08.157   +01 33 19.01  .05529 1.0425 154.4 21.6 1.12 162
2024 11 01 20  00 59 24.082   +01 27 09.11  .05538 1.0425 154.3 21.6 1.16 162
2024 11 01 21  00 59 39.962   +01 21 00.42  .05547 1.0426 154.3 21.6 1.19 161
2024 11 01 22  00 59 55.797   +01 14 52.95  .05555 1.0426 154.2 21.6 1.22 161
2024 11 01 23  01 00 11.588   +01 08 46.70  .05564 1.0427 154.2 21.6 1.26 160
2024 11 02 00  01 00 27.335   +01 02 41.67  .05573 1.0427 154.2 21.6 1.29 160
2024 11 02 01  01 00 43.038   +00 56 37.85  .05582 1.0428 154.1 21.6 1.33 160
2024 11 02 02  01 00 58.696   +00 50 35.25  .05591 1.0429 154.1 21.7 1.37 160
2024 11 02 03  01 01 14.311   +00 44 33.86  .05599 1.0429 154.0 21.7 1.40 159
2024 11 02 04  01 01 29.883   +00 38 33.69  .05608 1.0430 154.0 21.7 1.44 159
2024 11 02 05  01 01 45.411   +00 32 34.73  .05617 1.0430 153.9 21.7 1.48 159
2024 11 02 06  01 02 00.895   +00 26 36.98  .05626 1.0431 153.9 21.7 1.52 158
2024 11 02 07  01 02 16.337   +00 20 40.44  .05635 1.0431 153.9 21.7 1.56 158
2024 11 02 08  01 02 31.735   +00 14 45.10  .05644 1.0432 153.8 21.7 1.60 158
2024 11 02 09  01 02 47.091   +00 08 50.98  .05653 1.0432 153.8 21.7 1.64 158
2024 11 02 10  01 03 02.404   +00 02 58.06  .05663 1.0433 153.7 21.7 1.68 158
2024 11 02 11  01 03 17.674   -00 02 53.65  .05672 1.0433 153.7 21.7 1.72 157
2024 11 02 12  01 03 32.902   -00 08 44.16  .05681 1.0434 153.6 21.7 1.76 157
2024 11 02 13  01 03 48.088   -00 14 33.47  .05690 1.0434 153.6 21.7 1.80 157
2024 11 02 14  01 04 03.232   -00 20 21.58  .05699 1.0435 153.5 21.7 1.84 157
2024 11 02 15  01 04 18.333   -00 26 08.49  .05708 1.0435 153.5 21.7 1.88 157
2024 11 02 16  01 04 33.393   -00 31 54.20  .05718 1.0436 153.4 21.7 1.93 156
2024 11 02 17  01 04 48.411   -00 37 38.71  .05727 1.0436 153.4 21.7 1.97 156
2024 11 02 18  01 05 03.388   -00 43 22.03  .05736 1.0437 153.4 21.7 2.01 156
2024 11 02 19  01 05 18.323   -00 49 04.16  .05746 1.0438 153.3 21.7 2.06 156
2024 11 02 20  01 05 33.217   -00 54 45.10  .05755 1.0438 153.3 21.7 2.10 156
2024 11 02 21  01 05 48.070   -01 00 24.84  .05764 1.0439 153.2 21.7 2.15 156
2024 11 02 22  01 06 02.882   -01 06 03.40  .05774 1.0439 153.2 21.8 2.19 156
2024 11 02 23  01 06 17.654   -01 11 40.78  .05783 1.0440 153.1 21.8 2.24 156
2024 11 03 00  01 06 32.384   -01 17 16.96  .05793 1.0440 153.1 21.8 2.28 155